TimeEDT,TemperatureF,Dew PointF,Humidity,Sea Level PressureIn,VisibilityMPH,Wind Direction,Wind SpeedMPH,Gust SpeedMPH,PrecipitationIn,Events,Conditions,WindDirDegrees,DateUTC
12:53 AM,51.1,48.9,92,29.99,5.0,Calm,Calm,-,N/A,,Clear,0,2013-09-25 04:53:00
1:04 AM,50.0,48.2,94,30.00,1.5,Calm,Calm,-,N/A,,Clear,0,2013-09-25 05:04:00
1:15 AM,50.0,48.2,94,29.99,3.0,Calm,Calm,-,N/A,,Clear,0,2013-09-25 05:15:00
1:27 AM,51.8,50.0,94,29.99,1.8,Calm,Calm,-,N/A,,Partly Cloudy,0,2013-09-25 05:27:00
1:31 AM,51.8,50.0,94,29.99,3.0,Calm,Calm,-,N/A,,Clear,0,2013-09-25 05:31:00
1:53 AM,48.9,48.0,97,29.98,1.2,Calm,Calm,-,N/A,,Partly Cloudy,0,2013-09-25 05:53:00
2:03 AM,48.2,48.2,100,29.98,3.0,Calm,Calm,-,N/A,,Partly Cloudy,0,2013-09-25 06:03:00
2:53 AM,51.1,48.9,92,29.96,9.0,Calm,Calm,-,N/A,,Clear,0,2013-09-25 06:53:00
3:43 AM,48.2,46.4,93,29.96,1.8,North,3.5,-,N/A,,Partly Cloudy,360,2013-09-25 07:43:00
3:53 AM,48.9,46.9,93,29.95,1.2,Calm,Calm,-,N/A,,Partly Cloudy,0,2013-09-25 07:53:00
3:57 AM,48.2,48.2,100,29.95,4.0,Calm,Calm,-,N/A,,Partly Cloudy,0,2013-09-25 07:57:00
4:53 AM,50.0,48.0,93,29.93,10.0,Calm,Calm,-,N/A,,Clear,0,2013-09-25 08:53:00
5:53 AM,48.9,46.9,93,29.93,9.0,Calm,Calm,-,N/A,,Clear,0,2013-09-25 09:53:00
6:53 AM,48.9,46.9,93,29.94,10.0,Calm,Calm,-,N/A,,Clear,0,2013-09-25 10:53:00
7:53 AM,51.1,48.0,89,29.95,10.0,Calm,Calm,-,N/A,,Clear,0,2013-09-25 11:53:00
8:53 AM,54.0,50.0,86,29.96,10.0,Calm,Calm,-,N/A,,Clear,0,2013-09-25 12:53:00
9:53 AM,60.1,51.1,72,29.96,10.0,Calm,Calm,-,N/A,,Clear,0,2013-09-25 13:53:00
10:53 AM,64.9,48.9,56,29.96,10.0,Calm,Calm,-,N/A,,Clear,0,2013-09-25 14:53:00
11:53 AM,66.9,51.1,57,29.95,10.0,Calm,Calm,-,N/A,,Clear,0,2013-09-25 15:53:00
12:53 PM,70.0,52.0,53,29.94,10.0,East,4.6,-,N/A,,Clear,80,2013-09-25 16:53:00
1:53 PM,73.0,52.0,48,29.93,10.0,Calm,Calm,-,N/A,,Clear,0,2013-09-25 17:53:00
2:53 PM,75.0,53.1,46,29.91,10.0,Calm,Calm,-,N/A,,Clear,0,2013-09-25 18:53:00
3:53 PM,73.0,53.1,49,29.90,10.0,Calm,Calm,-,N/A,,Partly Cloudy,0,2013-09-25 19:53:00
4:53 PM,72.0,54.0,53,29.89,10.0,NNE,4.6,-,N/A,,Partly Cloudy,20,2013-09-25 20:53:00
5:53 PM,70.0,55.0,59,29.90,10.0,Calm,Calm,-,N/A,,Scattered Clouds,0,2013-09-25 21:53:00
6:53 PM,66.0,57.0,73,29.91,10.0,NNE,3.5,-,N/A,,Mostly Cloudy,30,2013-09-25 22:53:00
7:53 PM,64.0,55.0,73,29.91,10.0,North,3.5,-,N/A,,Clear,350,2013-09-25 23:53:00
8:53 PM,63.0,52.0,67,29.92,10.0,Calm,Calm,-,N/A,,Clear,0,2013-09-26 00:53:00
9:53 PM,61.0,53.1,75,29.93,10.0,Calm,Calm,-,N/A,,Clear,0,2013-09-26 01:53:00
10:53 PM,60.1,52.0,75,29.94,10.0,Calm,Calm,-,N/A,,Clear,0,2013-09-26 02:53:00
11:53 PM,57.0,52.0,83,29.94,10.0,Calm,Calm,-,N/A,,Clear,0,2013-09-26 03:53:00